Location: Woodstock
(35.2731°N, 89.9823°W)
Time: 20:55:57
(UTC+00:00)

Transit 2A - Pass Details

Date: 13 November 2024
Orbit: 592 x 956 km, 66.7° (Epoch: 03 December)

Event Time Altitude Azimuth Distance (km) Brightness Sun altitude
Exits shadow 12:04:58 - 288° (WNW) 2,919 8.3 -6.3°
Reaches altitude 10° 12:06:43 10° 302° (WNW) 2,687 8.2 -6.0°
Maximum altitude 12:08:28 11° 318° (NW) 2,600 8.2 -5.6°
Drops below altitude 10° 12:10:13 10° 335° (NNW) 2,676 8.4 -5.3°
Sets 12:15:09 0° 9° (N) 3,577 9.3 -4.4°
